Regional Weather Roundup
Issued by NWS Upton, NY

Home | Current Version | Previous Version | Text Only | Print | Product List | Glossary On
Versions: 1 2 3 4 5 6 7 8 9 10 11 12 13 14 15 16 17 18 19 20 21 22 23 24 25 26 27 28 29 30 31 32 33 34 35 36 37 38 39 40 41 42 43 44 45 46 47 48 49 50
000
ASUS41 KOKX 281408
RWROKX

REGIONAL WEATHER ROUNDUP
NATIONAL WEATHER SERVICE NEW YORK NY
1000 AM EDT TUE MAR 28 2017

NOTE: "FAIR" INDICATES FEW OR NO CLOUDS BELOW 12,000 FEET WITH NO
SIGNIFICANT WEATHER AND/OR OBSTRUCTIONS TO VISIBILITY.

NYZ071-072-176-178-NJZ106-104-281500-
NEW YORK CITY METRO AREA

CITY           SKY/WX    TMP DP  RH WIND       PRES   REMARKS
Central Park   CLOUDY    43  42  97 E5        29.99R FOG
Wall St Helipt CLOUDY    45  43  93 E8        29.97R
LaGuardia APRT CLOUDY    43  39  86 NE13      29.97R FOG
Kennedy INTL   CLOUDY    47  45  93 E7        29.97R
Breezy Point     N/A     43 N/A N/A E8G15       N/A
Newark/Liberty CLOUDY    46  44  93 NE7       29.97R FOG
Teterboro      CLOUDY    44  42  93 E3        29.96R FOG
$$

NYZ177-179-078>081-281500-
LONG ISLAND NEW YORK

CITY           SKY/WX    TMP DP  RH WIND       PRES   REMARKS
Jones Beach      N/A     43 N/A N/A E12         N/A
Matinecock PT    N/A     37 N/A N/A E16         N/A  WCI  28
Farmingdale    CLOUDY    46  44  93 E7        29.95F
MacArthur/ISP  CLOUDY    46  44  93 E12G20    29.93F
Shirley        CLOUDY    44  43  96 VRB7      29.96F
Westhampton    CLOUDY    43  41  93 E8        29.98F
East Hampton   CLOUDY    41  40  95 E8        30.00R
Montauk        NOT AVBL
$$

NYZ052-065-067-281500-
HUDSON VALLEY

CITY           SKY/WX    TMP DP  RH WIND       PRES   REMARKS
White Plains   FOG       42  40  92 E9        29.94S VSB 1
Newburgh       LGT RAIN  45  45 100 E7        29.95F FOG
Montgomery     LGT RAIN  45  43  93 NE5       29.92S FOG
Poughkeepsie   LGT RAIN  44  41  89 E6        29.93F
Albany         CLOUDY    46  41  82 S6        29.94F FOG
$$

NJZ001-105-106-008-010-013-015-019>022-104-281500-
NEW JERSEY

CITY           SKY/WX    TMP DP  RH WIND       PRES   REMARKS
Newark/Liberty CLOUDY    46  44  93 NE7       29.97R FOG
Teterboro      CLOUDY    44  42  93 E3        29.96R FOG
Caldwell       CLOUDY    44  42  93 E7        29.96R FOG
Somerville     CLOUDY    47  46  97 S6        29.97R FOG
Linden         CLOUDY    46  44  91 CALM      29.97R FOG
Sussex         CLOUDY    45  45 100 CALM      29.94R FOG
Andover          N/A     47  45  93 VRB5      29.93S
Trenton        RAIN      44  44 100 E10       29.91F FOG
Millville      LGT RAIN  56  56 100 E6        29.88S
Atlantic City  CLOUDY    52  49  89 NE5       29.91R
Wrightstown    LGT RAIN  47  47  98 NE8       29.91R FOG
Toms River     TSTM      48  46  93 SW3       29.97R FOG
Belmar         CLOUDY    44  44 100 NW7       29.98R FOG
$$

PAZ047>061-062-071-281500-
EASTERN PENNSYLVANIA

CITY           SKY/WX    TMP DP  RH WIND       PRES   REMARKS
Philadelphia   CLOUDY    50  48  93 E10       29.90R
Allentown      LGT RAIN  49  45  86 E10       29.91R FOG
Scranton       CLOUDY    54  51  90 NE5       29.87F FOG
$$

CTZ002-004>006-009-010-012-RIZ004-006-007-MAZ004-011-015-281500-
SOUTHERN NEW ENGLAND
 IN CT

CITY           SKY/WX    TMP DP  RH WIND       PRES   REMARKS
Bradley INTL   CLOUDY    41  39  93 CALM      30.00S FOG
Hartford       CLOUDY    42  40  92 CALM      30.00S FOG
Danbury        CLOUDY    42  41  96 E8        29.97F
Wtrbury/Oxford FOG       39  36  87 S5        29.98S VSB 1/4
Bridgeport     CLOUDY    42  39  89 NE16      29.98F FOG
Meriden        CLOUDY    42  39  89 CALM      30.00R FOG
New Haven      CLOUDY    41  39  93 E9        30.00S
Chester        NOT AVBL
Groton         CLOUDY    40  39  97 E8        30.01R WCI  34
Wilimantic     CLOUDY    43  41  93 CALM      30.01S

 IN RI

CITY           SKY/WX    TMP DP  RH WIND       PRES   REMARKS
Providence     CLOUDY    40  37  89 E6        30.03F FOG
Block Island   CLOUDY    39  38  96 E12G18    30.02R WCI  32
Westerly       CLOUDY    40  40 100 E9        30.02S WCI  34
 IN MA

CITY           SKY/WX    TMP DP  RH WIND       PRES   REMARKS
Boston         CLOUDY    38  36  92 E7        30.05S WCI  33
Worcester      FOG       35  33  92 E7        29.99S VSB<1/4 WCI  29
Westfield      CLOUDY    40  40 100 CALM      29.99F
Provincetown   CLOUDY    40  38  93 NE9       30.04F WCI  34
Nantucket      CLOUDY    40  39  97 NE8       30.03S FOG     WCI  34
$$

ANZ330-335-338-340-345-350-353-355-281500-
COASTAL MARINE OBSERVATIONS


STATION/POSITION TIME  SKY/WX   TEMP    WIND        PRES    VSBY  WAVE
                                AIR SEA DIR/SP/G                  HT/PER
                 (UTC)          (F)     (DEG/KT/KT) (MB)    (MI)  (FT/S)
NY HARB ENTRANCE 1350            42 42   70/ 10/ 12 1013.9          3/ 6
20 S FIRE ISLAND 1350            43 42  100/ 14/ 16 1013.1          4/ 6
GREAT SOUTH BAY  NOT AVBL
23 SSW MONTAUK P 1250            41 42              1016.0          3/ 8
15 E BARNEGAT LI 1330               44                N/A           4/ 9
HUDSON CANYON    1250            46 44  100/  6/  8 1014.4          3/ 7
KINGS POINT      1336            40 40              1014.3
EXECUTION ROCKS  NOT AVBL
CENTRAL LI SOUND 1253            39      90/ 10/ 10   N/A           1
EASTERN LI SOUND NOT AVBL
ROBBINS REEF     1336            43      40/ 10/ 11 1014.5
$$


>>>>>>>>>>>>>>>>>>>>>>>>>>>> KEY <<<<<<<<<<<<<<<<<<<<<<<<<<<
>                                                          <
>     SKY/WX - Sky Condition/Present Weather               <
>     TMP    - Temperature in Fahrenheit                   <
>     DP     - Dew Point in Fahrenheit                     <
>     RH     - Relative Humidity in Percent                <
>     WIND   - Direction (from) and Speed in MPH           <
>     PRES   - Mean Sea Level Pressure (inches of Hg)      <
>     WCI    - Wind Chill Index                            <
>     VSB    - VISIBILITY IN MILES                         <
>     HX     - HEAT INDEX                                  <
>     TC     - TEMPERATURE IN CELSIUS                      <
>     VRB    - VARIABLE WIND DIRECTION                     <
>                                                          <
>>>>>>>>>>>>>>>>>>>>>>>>>>>> KEY <<<<<<<<<<<<<<<<<<<<<<<<<<<



USA.gov is the U.S. government's official web portal to all federal, state and local government web resources and services.